Wolf Point, MT

10:35 AM MST on February 13, 2016 (GMT -0700)
Clayton

Weather History for KOLF - October, 2012

Change the Weather History Date:

Monday, October 1, 2012

  Actual Average Record
Temperature  
Mean Temperature 54 °F -  
Max Temperature 75 °F 66 °F 90 °F (2011)
Min Temperature 32 °F 35 °F 16 °F (2004)
Degree Days  
Heating Degree Days 11    
Cooling Degree Days 0    
Growing Degree Days 4 (Base 50)    
Moisture  
Dew Point 35 °F    
Average Humidity 56    
Maximum Humidity 96    
Minimum Humidity 23    
Precipitation  
Precipitation 0.00 in 0.02 in 0.05 in (2000)
Month to date precipitation 0.00 0.02  
Year to date precipitation 9.14 10.70  
Sea Level Pressure  
Sea Level Pressure 30.09 in    
Wind  
Wind Speed 7 mph (SW)    
Max Wind Speed 15 mph    
Max Gust Speed 22 mph    
Visibility 10 miles    
Events      
T = Trace of Precipitation, MM = Missing Value Source: NWS Daily Summary

Daily Weather History Graph

Daily Weather History Graph

Search for Another Location

Airport or City:

Trip Planner

Search our weather history database for the weather conditions in past years. The results will help you decide how hot, cold, wet, or windy it might be!

Date:

Astronomy

Oct. 01, 2012 Rise Set
Actual Time 7:02 AM MDT 6:40 PM MDT
Civil Twilight 6:31 AM MDT 7:11 PM MDT
Nautical Twilight 5:55 AM MDT 7:47 PM MDT
Astronomical Twilight 5:18 AM MDT 8:23 PM MDT
Moon 7:06 PM MDT (10/1) 8:45 AM MDT (10/1)
Length of Visible Light 12h 39m
Length of Day
11h 38m
Full, 97% of the Moon is Illuminated
Oct 1
Full
Oct 8
Last Quarter
Oct 15
New
Oct 21
First Quarter
Oct 29
Full

Hourly Weather History & Observations

Time (MDT) Temp. Windchill Dew Point Humidity Pressure Visibility Wind Dir Wind Speed Gust Speed Precip Events Conditions
12:53 AM 44.1 °F 40.1 °F 39.0 °F 82% 30.29 in 10.0 mi SW 6.9 mph - N/A   Clear
1:53 AM 37.9 °F 33.5 °F 36.0 °F 93% 30.31 in 10.0 mi WSW 5.8 mph - N/A   Clear
2:53 AM 39.0 °F 34.8 °F 36.0 °F 89% 30.32 in 10.0 mi WSW 5.8 mph - N/A   Clear
3:53 AM 39.0 °F 33.4 °F 36.0 °F 89% 30.32 in 10.0 mi WSW 8.1 mph - N/A   Clear
4:53 AM 36.0 °F 30.3 °F 34.0 °F 93% 30.33 in 10.0 mi WSW 6.9 mph - N/A   Clear
5:53 AM 34.0 °F 28.8 °F 33.1 °F 96% 30.33 in 10.0 mi WSW 5.8 mph - N/A   Clear
6:53 AM 33.1 °F 28.7 °F 32.0 °F 96% 30.33 in 10.0 mi WSW 4.6 mph - N/A   Clear
7:53 AM 35.1 °F 31.0 °F 34.0 °F 96% 30.32 in 10.0 mi WSW 4.6 mph - N/A   Clear
8:53 AM 42.1 °F 40.2 °F 37.0 °F 82% 30.31 in 10.0 mi West 3.5 mph - N/A   Clear
9:53 AM 48.9 °F - 39.9 °F 71% 30.27 in 10.0 mi Calm Calm - N/A   Clear
10:53 AM 57.9 °F - 41.0 °F 53% 30.23 in 10.0 mi South 3.5 mph - N/A   Clear
11:53 AM 64.9 °F - 33.1 °F 31% 30.19 in 10.0 mi Variable 6.9 mph 16.1 mph N/A   Clear
12:53 PM 68.0 °F - 33.1 °F 27% 30.13 in 10.0 mi South 9.2 mph - N/A   Clear
1:53 PM 70.0 °F - 35.1 °F 28% 30.08 in 10.0 mi SSW 6.9 mph - N/A   Clear
2:53 PM 73.9 °F - 36.0 °F 25% 30.02 in 10.0 mi South 11.5 mph 17.3 mph N/A   Clear
3:53 PM 73.9 °F - 35.1 °F 24% 29.96 in 10.0 mi SSW 15.0 mph 21.9 mph N/A   Clear
4:53 PM 75.0 °F - 35.1 °F 23% 29.93 in 10.0 mi SSW 15.0 mph - N/A   Clear
5:53 PM 73.0 °F - 35.1 °F 25% 29.89 in 10.0 mi SSW 11.5 mph - N/A   Clear
6:53 PM 66.9 °F - 35.1 °F 31% 29.87 in 10.0 mi South 4.6 mph - N/A   Clear
7:53 PM 63.0 °F - 35.1 °F 35% 29.84 in 10.0 mi SSW 3.5 mph - N/A   Clear
8:53 PM 62.1 °F - 35.1 °F 37% 29.79 in 10.0 mi SSW 5.8 mph - N/A   Clear
9:53 PM 63.0 °F - 35.1 °F 35% 29.75 in 10.0 mi SSW 9.2 mph - N/A   Clear
10:53 PM 62.1 °F - 35.1 °F 37% 29.69 in 10.0 mi SW 6.9 mph 19.6 mph N/A   Clear
11:53 PM 62.1 °F - 34.0 °F 35% 29.65 in 10.0 mi SW 9.2 mph - N/A   Clear